Flag for Belgium Weather past 2 weeks in Mons, Belgium

Now
55 °F

Broken clouds.


Feels Like: 52 °F
Forecast: 46 / 66 °F
Wind: 12 mph from West

Location: Chievres

Current Time: May 30, 2015 at 12:58:24 PM

Latest Report: May 30, 2015 at 12:25 PM


Visibility: N/A

Pressure: 29.98 "Hg

Humidity: 59%

Dew point: 41 °F

Location of MonsLocation

Historic Weather in Mons — Graph

°F

Mons temperature yesterday

Maximum temperature yesterday: 59 °F (at 12:55 PM)
Minimum temperature yesterday: 45 °F (at 1:55 AM)
Average temperature yesterday: 51 °F

Past Weeks' High & Low Weather Summary

 TemperatureHumidityPressure
High68 °F (May 27, 3:55 PM)100% (May 16, 1:55 PM)30.36 "Hg (May 16, 1:55 PM)
Low39 °F (May 21, 4:55 AM)35% (May 24, 4:25 PM)29.68 "Hg (May 18, 10:55 PM)
Average53 °F76%30.09 "Hg
* Reported May 15 11:25 AM — May 30 11:25 AM, Mons, Weather by CustomWeather, © 2015

Note: Actual official high and low records may vary slightly from our data, if they occured in-between our weather recording intervals... More about our weather records

Advertising

Mons weather history for previous 24 hours

 ConditionsComfort  
Time TempWeatherWind HumidityBarometerVisibility
11:25 AM
Sat, May 30
57 °FScattered clouds.12 mph59%29.98 "HgN/A
10:55 AM55 °FPassing clouds.10 mph63%29.98 "HgN/A
10:25 AM55 °FPassing clouds.10 mph63%29.98 "HgN/A
9:55 AM54 °FPassing clouds.9 mph67%29.95 "HgN/A
9:25 AM52 °FPassing clouds.9 mph82%29.95 "HgN/A
8:55 AM50 °FCool.9 mph88%29.95 "HgN/A
8:25 AM50 °FPassing clouds.8 mph88%29.95 "HgN/A
7:55 AM48 °FPartly sunny.8 mph94%29.95 "HgN/A
7:25 AM48 °FPartly sunny.8 mph94%29.95 "HgN/A
6:55 AM46 °FPassing clouds.7 mph93%29.92 "HgN/A
6:25 AM45 °FQuite cool.7 mph93%29.92 "HgN/A
5:55 AM45 °FPassing clouds.7 mph93%29.89 "Hg6 mi
5:25 AM45 °FQuite cool.6 mph93%29.89 "Hg6 mi
4:55 AM45 °FQuite cool.6 mph93%29.89 "HgN/A
4:25 AM46 °FPassing clouds.7 mph93%29.86 "HgN/A
3:55 AM46 °FPassing clouds.8 mph93%29.89 "HgN/A
3:25 AM46 °FCool.8 mph93%29.86 "Hg6 mi
2:55 AM46 °FCool.6 mph93%29.86 "HgN/A
2:25 AM48 °FPassing clouds.8 mph94%29.86 "HgN/A
1:55 AM48 °FCool.7 mph94%29.83 "HgN/A
1:25 AM48 °FCool.7 mph94%29.83 "HgN/A
12:55 AM50 °FPassing clouds.9 mph88%29.83 "HgN/A
12:25 AM50 °FPartly cloudy.8 mph94%29.83 "HgN/A
11:55 PM
Fri, May 29
50 °FPartly cloudy.7 mph94%29.83 "HgN/A
11:25 PM52 °FPartly cloudy.10 mph88%29.83 "HgN/A
10:25 PM52 °FDrizzle. Broken clouds.14 mph88%29.83 "HgN/A
9:55 PM52 °FDrizzle. Broken clouds.10 mph88%29.83 "HgN/A
9:25 PM48 °FDrizzle. Partly sunny.1 mph94%29.80 "HgN/A
8:55 PM48 °FRain. Partly sunny.5 mph94%29.80 "HgN/A
8:25 PM46 °FDrizzle. Partly sunny.1 mph100%29.80 "Hg4 mi
7:55 PM46 °FRain. Broken clouds.6 mph100%29.80 "Hg6 mi
7:25 PM48 °FRain. Broken clouds.14 mph94%29.80 "Hg3 mi
6:55 PM55 °FDrizzle. Broken clouds.14 mph77%29.77 "HgN/A
6:25 PM54 °FDrizzle. Broken clouds.13 mph82%29.80 "HgN/A
5:55 PM54 °FPartly sunny.15 mph82%29.80 "HgN/A
5:25 PM55 °FDrizzle. Broken clouds.16 mph72%29.80 "HgN/A
4:55 PM57 °FMostly cloudy.15 mph59%29.80 "HgN/A
4:25 PM57 °FMostly cloudy.18 mph63%29.80 "HgN/A
3:55 PM57 °FCloudy.14 mph59%29.83 "HgN/A
3:25 PM57 °FBroken clouds.16 mph59%29.83 "HgN/A
2:55 PM57 °FPartly sunny.14 mph59%29.83 "HgN/A
2:25 PM59 °FBroken clouds.13 mph55%29.83 "HgN/A
1:55 PM57 °FPartly sunny.15 mph59%29.83 "HgN/A
1:25 PM57 °FPartly sunny.16 mph55%29.83 "HgN/A
12:55 PM59 °FScattered clouds.18 mph59%29.83 "HgN/A
12:25 PM57 °FBroken clouds.15 mph59%29.86 "HgN/A
Weather by CustomWeather, © 2015

See weather overviewHow to use our weather pages